Overview Statistics Trail Chart Weather Telemetry Raw packets
 

This is the latest recevied weather packets stored in our database for station/object KC5DAQ-2. If no packets are shown the sender has not sent any weather packets the latest 10 day(s).

<< 65 66 67 68 69 70 71 >>
Time Temp. Humidity Pressure Rain* Wind** Luminosity Snow
1788634562 35.56° C 75% 1004.7 hPa 0 mm - 106 W/m² -
1788634506 35.56° C 75% 1004.7 hPa 0 mm - 106 W/m² -
1788634443 35.56° C 75% 1004.8 hPa 0 mm - 120 W/m² -
1788634382 35.56° C 75% 1004.8 hPa 0 mm - 1016 W/m² -
1788634327 35.56° C 75% 1004.7 hPa 0 mm - 1016 W/m² -
1788634266 35.56° C 75% 1004.8 hPa 0 mm - 1016 W/m² -
1788634205 35.56° C 75% 1004.8 hPa 0 mm - 1016 W/m² -
1788634144 35.56° C 74% 1004.8 hPa 0 mm - 1016 W/m² -
1788634083 35.56° C 74% 1004.8 hPa 0 mm - 258 W/m² -
1788634028 35.56° C 74% 1004.8 hPa 0 mm - 258 W/m² -
1788633965 35.56° C 74% 1004.8 hPa 0 mm - 258 W/m² -
1788633903 35.56° C 75% 1004.8 hPa 0 mm - 258 W/m² -
1788633842 35.56° C 75% 1004.9 hPa 0 mm - 258 W/m² -
1788633786 35.56° C 75% 1004.9 hPa 0 mm - 473 W/m² -
1788633725 35.56° C 75% 1004.9 hPa 0 mm - 990 W/m² -
1788633664 35.56° C 75% 1005 hPa 0 mm - 990 W/m² -
1788633603 35.56° C 75% 1004.9 hPa 0 mm - 967 W/m² -
1788633544 35.56° C 75% 1005 hPa 0 mm - 967 W/m² -
1788633484 35° C 75% 1005 hPa 0 mm - 967 W/m² -
1788633423 35° C 74% 1005 hPa 0 mm - 971 W/m² -
1788633363 35° C 75% 1005 hPa 0 mm - 988 W/m² -
1788633303 35° C 75% 1004.9 hPa 0 mm - 988 W/m² -
1788633250 35° C 75% 1005.1 hPa 0 mm - 988 W/m² -
1788633184 35° C 75% 1005 hPa 0 mm - 988 W/m² -
1788633122 35° C 75% 1005.1 hPa 0 mm - 993 W/m² -

* Rain latest hour (hover to see other rain measurements)
** Current wind speed in m/s (hover to see current wind gust speed)